AHR YPIR-YMBD

Flight info

Callsign AHR
Flight time N/A
Altitude 6500
Route ACTY
Aircraft AEST/L-VGD/A

Departure

Time N/A
Airport Port Pirie Airport (YPIR)

Arrival

Time 2026-05-05 07:54
Airport Murray Bridge Airport (YMBD)
Time Latitude Longitude Altitude Speed Heading
2026-05-05 07:33 -34.68663 138.51018 7549 ft 194 kts 165°
2026-05-05 07:33 -34.69958 138.51489 7545 ft 194 kts 166°
2026-05-05 07:34 -34.71253 138.51961 7544 ft 194 kts 165°
2026-05-05 07:34 -34.72525 138.52425 7548 ft 194 kts 166°
2026-05-05 07:34 -34.73820 138.52888 7541 ft 194 kts 167°
2026-05-05 07:34 -34.75113 138.53346 7548 ft 193 kts 165°
2026-05-05 07:35 -34.76267 138.53780 7541 ft 193 kts 165°
2026-05-05 07:35 -34.77529 138.54243 7536 ft 194 kts 166°
2026-05-05 07:35 -34.78820 138.54705 7544 ft 193 kts 166°
2026-05-05 07:35 -34.80111 138.55171 7542 ft 193 kts 165°
2026-05-05 07:36 -34.81398 138.55649 7550 ft 193 kts 166°
2026-05-05 07:36 -34.82686 138.56117 7544 ft 193 kts 166°
2026-05-05 07:36 -34.83981 138.56586 7549 ft 194 kts 165°
2026-05-05 07:36 -34.85276 138.57057 7543 ft 193 kts 165°
2026-05-05 07:37 -34.86555 138.57524 7541 ft 191 kts 165°
2026-05-05 07:37 -34.87829 138.57988 7544 ft 190 kts 166°
2026-05-05 07:37 -34.89058 138.58453 7535 ft 177 kts 164°
2026-05-05 07:37 -34.90210 138.58891 7534 ft 175 kts 166°
2026-05-05 07:38 -34.91390 138.59290 7549 ft 180 kts 167°
2026-05-05 07:38 -34.92586 138.59782 7541 ft 184 kts 154°
2026-05-05 07:38 -34.93496 138.60872 7538 ft 188 kts 121°
2026-05-05 07:38 -34.93915 138.62384 7559 ft 192 kts 105°
2026-05-05 07:39 -34.94224 138.64001 7551 ft 195 kts 105°
2026-05-05 07:39 -34.94554 138.65619 7549 ft 197 kts 106°
2026-05-05 07:39 -34.94901 138.67244 7548 ft 199 kts 106°
2026-05-05 07:39 -34.95254 138.68893 7427 ft 206 kts 106°
2026-05-05 07:40 -34.95617 138.70599 7158 ft 207 kts 106°
2026-05-05 07:40 -34.95980 138.72294 6888 ft 206 kts 106°
2026-05-05 07:40 -34.96275 138.73640 6650 ft 206 kts 106°
2026-05-05 07:40 -34.96623 138.75271 6359 ft 206 kts 106°
2026-05-05 07:41 -34.96980 138.76966 6051 ft 206 kts 106°
2026-05-05 07:41 -34.97303 138.78453 5764 ft 204 kts 106°
2026-05-05 07:41 -34.97662 138.80121 5486 ft 202 kts 105°
2026-05-05 07:41 -34.98013 138.81769 5212 ft 200 kts 104°
2026-05-05 07:42 -34.98363 138.83400 4937 ft 198 kts 104°
2026-05-05 07:42 -34.98704 138.85003 4658 ft 198 kts 104°
2026-05-05 07:42 -34.99048 138.86629 4383 ft 198 kts 104°
2026-05-05 07:42 -34.99387 138.88259 4111 ft 198 kts 104°
2026-05-05 07:43 -34.99741 138.89885 3848 ft 198 kts 105°
2026-05-05 07:43 -34.99972 138.90964 3677 ft 199 kts 105°
2026-05-05 07:43 -35.00151 138.91830 3526 ft 199 kts 105°
2026-05-05 07:43 -35.00494 138.93469 3269 ft 199 kts 105°
2026-05-05 07:44 -35.00839 138.95102 3007 ft 199 kts 105°
2026-05-05 07:44 -35.01193 138.96730 2738 ft 198 kts 106°
2026-05-05 07:44 -35.01517 138.98291 2575 ft 181 kts 106°
2026-05-05 07:44 -35.01818 138.99724 2347 ft 169 kts 106°
2026-05-05 07:45 -35.02084 139.00993 2132 ft 164 kts 107°
2026-05-05 07:45 -35.02368 139.02324 1853 ft 160 kts 107°
2026-05-05 07:45 -35.02652 139.03639 1604 ft 159 kts 107°
2026-05-05 07:45 -35.02929 139.04926 1329 ft 156 kts 107°
2026-05-05 07:46 -35.03175 139.06137 1425 ft 126 kts 103°
2026-05-05 07:46 -35.03310 139.07109 1534 ft 117 kts 103°
2026-05-05 07:46 -35.03406 139.08245 1233 ft 151 kts 90°
2026-05-05 07:46 -35.03642 139.09290 1743 ft 117 kts 128°
2026-05-05 07:47 -35.03983 139.10185 1800 ft 123 kts 110°
2026-05-05 07:47 -35.04243 139.11238 1779 ft 136 kts 108°
2026-05-05 07:47 -35.04498 139.12380 1767 ft 143 kts 107°
2026-05-05 07:47 -35.04761 139.13601 1731 ft 155 kts 107°
2026-05-05 07:48 -35.05036 139.14908 1684 ft 163 kts 107°
2026-05-05 07:48 -35.05324 139.16271 1607 ft 167 kts 108°
2026-05-05 07:48 -35.05614 139.17655 1558 ft 169 kts 107°
2026-05-05 07:48 -35.05895 139.19025 1658 ft 160 kts 107°
2026-05-05 07:49 -35.06241 139.20187 1679 ft 136 kts 123°
2026-05-05 07:49 -35.06725 139.21222 1715 ft 143 kts 127°
2026-05-05 07:49 -35.07270 139.22287 1721 ft 151 kts 122°
2026-05-05 07:49 -35.07318 139.23476 1958 ft 146 kts 65°
2026-05-05 07:50 -35.06845 139.24085 1855 ft 159 kts 32°
2026-05-05 07:50 -35.06527 139.24258 1764 ft 166 kts 15°
2026-05-05 07:50 -35.05435 139.24083 1744 ft 162 kts 325°
2026-05-05 07:50 -35.04755 139.23083 1822 ft 146 kts 292°
2026-05-05 07:51 -35.04713 139.21945 1546 ft 138 kts 240°
2026-05-05 07:51 -35.05382 139.21195 1336 ft 127 kts 207°
2026-05-05 07:51 -35.06229 139.21173 1207 ft 133 kts 148°
2026-05-05 07:51 -35.06789 139.22184 1133 ft 156 kts 118°
2026-05-05 07:52 -35.07239 139.23418 1180 ft 162 kts 114°
2026-05-05 07:52 -35.07177 139.24668 1127 ft 140 kts 60°
2026-05-05 07:52 -35.06425 139.25297 1177 ft 114 kts 18°
2026-05-05 07:52 -35.06175 139.25397 1224 ft 111 kts 18°
2026-05-05 07:53 -35.05413 139.25436 1023 ft 120 kts 331°
2026-05-05 07:53 -35.04904 139.24740 834 ft 111 kts 296°
2026-05-05 07:53 -35.04623 139.23934 665 ft 91 kts 252°
2026-05-05 07:53 -35.05147 139.23422 387 ft 96 kts 201°
2026-05-05 07:54 -35.05685 139.23118 230 ft 78 kts 206°
2026-05-05 07:54 -35.06128 139.22840 150 ft 57 kts 202°
2026-05-05 07:54 -35.06369 139.22690 149 ft 22 kts 208°
2026-05-05 07:54 -35.06424 139.22614 149 ft 15 kts 297°
2026-05-05 07:55 -35.06408 139.22573 149 ft 5 kts 294°
2026-05-05 07:55 -35.06439 139.22527 150 ft 8 kts 219°
2026-05-05 07:55 -35.06431 139.22512 151 ft 3 kts 44°
2026-05-05 07:55 -35.06429 139.22516 151 ft 1 kts 112°
2026-05-05 07:56 -35.06433 139.22520 151 ft 0 kts 162°